STARLINK-34341, 64161

Orbit data source: Space-Track

STARLINK-34341, 64161 is a payload satellite owned by SpaceX/Seattle (US) in SSO that was launched on Tue, 27 May 2025 UTC via an FALCON 9 launch vehicle from the Air Force Western Test Range (AFWTR). Payload-class satellites include a variety of spacecraft equipped with specific instruments for various scientific and technological missions. These include communications satellites like Starlink; space stations such as the ISS; scientific satellites like the Hubble; Earth observation satellites from companies like Planet Labs, Umbra, and HawkEye 360; GPS; miniature CubeSats for education and research; and military/defense satellites.

Loading next visibility...
Identifier
64161, 2025-112R
Orbit
SSO
Country
Flag of USUS
Related business
Manufacturer
SpaceX/Seattle
Mission
Operational Commercial Communications
Bus & Motor
STARLINK V2MO, Unknown motor
Mass
575 kg wet, ~530 kg dry
Launch date (UTC)
2025-05-27 (1 year ago)
Launch vehicle
FALCON 9
Launch site
Air Force Western Test Range (AFWTR)
Object type
Payload
Rocket body
Debris
Shape & HBR
Box + 2 Pan, 17.7 m
Radar Cross Section
36.964 m², Large (>1 m²)

Expand to show TLE details & history
Last TLE update: 14 hours ago

TLE from 14 hours ago
0 STARLINK-34341
1 64161U 25112R   26145.14031558 -.00002617  00000-0 -17745-3 0  9999
2 64161  97.4532 196.5443 0002282 105.2351 254.9128 15.05631202 54817
Epoch: 2026-05-25T03:22Z
TLE epoch observation values (Epoch: 2026-05-25T03:22:03.266Z)
Latitude
-0.00006°
Longitude
-96.70168°
Altitude
553.05 km
Speed
7.585 km/s
True Right ascension
13h 06m 10s
True Declination
0° 00' 00"
Sunlit
Object was in full shadow at epoch
Visualization orbit readout
Latitude
Unknown
Longitude
Unknown
Altitude
Unknown
Speed
Unknown
Apparent Right ascension
Unknown
Apparent Declination
Unknown
Sunlit
N/A
Visualization observer readout
Local Sidereal Time
02:49:39
Azimuth
Unknown
Elevation
Unknown
Doppler factor
Unknown
Orbital elements
Apogee altitude
548.136 km
Perigee altitude
544.976 km
Semi-major axis
6,924.693 km
Eccentricity
0.00023
Inclination
97.4532°
RAAN
196.5443°
Arg. of periapsis
105.2351°
True anomaly
254.88755°
Mean anomaly
254.9128°
Eccentric anomaly
254.90018°
Mean motion
3.76654 °/min
Orbital period
95.58 mins
BSTAR
-0.00017745
Loading maneuver chart data...
Computing Atmospheric mass density...
Loading historical data...
Loading historical data...
Loading historical data...
Loading historical data...
Loading historical data...
Loading historical data...
Loading historical data...

Documentation

Showing up to 5 results
|